Location: Unspecified
(49.2170°N, 0.0000°E)
Time: 06:36:27
(UTC+00:00)

Vanguard 3 - Pass Details

Date: 02 July 2019
Orbit: 507 x 3264 km, 33.4° (Epoch: 17 July)

Event Time Altitude Azimuth Distance (km) Brightness Sun altitude
Rises 10:32:52 0° 253° (WSW) 7,128 11.8 58.3°
Reaches altitude 10° 10:38:23 10° 247° (WSW) 5,906 11.6 58.9°
Maximum altitude 10:53:32 40° 188° (S) 3,072 11.2 60.4°
Drops below altitude 10° 11:03:18 10° 124° (ESE) 3,846 11.2 61.2°
Sets 11:06:04 0° 116° (ESE) 4,503 11.3 61.4°
